This is the latest recevied weather packets stored in our database for station/object OE3MNS-13. If no packets are shown the sender has not sent any weather packets the latest 10 day(s).
| Time | Temp. | Humidity | Pressure | Rain* | Wind** | Luminosity | Snow |
|---|---|---|---|---|---|---|---|
| 1777297521 | 20° C | 26% | 1020.1 hPa | 0 mm | - | 604 W/m² | - |
| 1777295120 | 19.44° C | 29% | 1020.6 hPa | 0 mm | - | 673 W/m² | - |
| 1777294521 | 19.44° C | 28% | 1020.8 hPa | 0 mm | - | 698 W/m² | - |
| 1777291518 | 19.44° C | 31% | 1021.1 hPa | 0 mm | - | 765 W/m² | - |
| 1777290922 | 19.44° C | 29% | 1021.2 hPa | 0 mm | - | 774 W/m² | - |
| 1777287343 | 17.78° C | 34% | 1021.6 hPa | 0 mm | - | 795 W/m² | - |
| 1777286738 | 17.78° C | 33% | 1021.7 hPa | 0 mm | - | 793 W/m² | - |
| 1777274722 | 12.22° C | 51% | 1022.6 hPa | 0 mm | - | 444 W/m² | - |
| 1777272920 | 9.44° C | 61% | 1022.8 hPa | 0 mm | - | 356 W/m² | - |
| 1777270521 | 7.22° C | 70% | 1022.9 hPa | 0 mm | - | 225 W/m² | - |
| 1777268721 | 5° C | 77% | 1022.9 hPa | 0 mm | - | 138 W/m² | - |
| 1777268121 | 4.44° C | 76% | 1022.9 hPa | 0 mm | - | 111 W/m² | - |
| 1777266921 | 4.44° C | 77% | 1022.8 hPa | 0 mm | - | 67 W/m² | - |
| 1777260923 | 3.89° C | 76% | 1022.7 hPa | 0 mm | - | 1 W/m² | - |
| 1777259721 | 3.33° C | 75% | 1022.6 hPa | 0 mm | - | 0 W/m² | - |
| 1777259142 | 3.33° C | 76% | 1022.6 hPa | 0 mm | - | 0 W/m² | - |
| 1777257320 | 3.89° C | 74% | 1022.7 hPa | 0 mm | - | 0 W/m² | - |
| 1777251321 | 4.44° C | 71% | 1023.2 hPa | 0 mm | - | 0 W/m² | - |
| 1777250742 | 5° C | 72% | 1023.4 hPa | 0 mm | - | 0 W/m² | - |
| 1777249524 | 5° C | 71% | 1023.5 hPa | 0 mm | - | 0 W/m² | - |
| 1777245919 | 5° C | 69% | 1023.6 hPa | 0 mm | - | 0 W/m² | - |
| 1777236317 | 7.78° C | 58% | 1023.9 hPa | 0 mm | - | 0 W/m² | - |
| 1777234519 | 8.33° C | 56% | 1023.7 hPa | 0 mm | - | 0 W/m² | - |
| 1777230921 | 10.56° C | 44% | 1022.9 hPa | 0 mm | - | 0 W/m² | - |
| 1777228519 | 11.67° C | 40% | 1022.4 hPa | 0 mm | - | 0 W/m² | - |
* Rain latest hour (hover to see other rain measurements)
** Current wind speed in m/s (hover to see current wind gust speed)